sat.trackr.live / text

‹ back to catalog

POSIDONIA

NORAD 69922 · 2026-156BF

PAYLOAD ACTIVE UNKNOWN

§ Identity

Operator
Country
SPN
Launch date
2026-07-07
Launch site
AFWTR
Launch vehicle
Mass (kg)
RCS (m²)

External: N2YO · Heavens-Above · Gunter

§ Orbital elements

Epoch: 2026-09-20T04:31:01.831296Z

Period
96.52 min
Inclination
97.7436°
Eccentricity
0.0005537
Mean motion
14.91884490 rev/d
Perigee alt
588.2 km
Apogee alt
595.9 km
Semi-major
6,970.2 km
B*
4.4690e-5
RAAN
162.3946°
Arg perigee
270.1423°
Mean anomaly
89.9161°
Rev number
1,116

§ Raw data

POSIDONIA1 69922U 26156BF  26263.18821564  .00000396  00000+0  44690-4 0  99962 69922  97.7436 162.3946 0005537 270.1423  89.9161 14.91884490 11167

JSON: /api/v1/satellites/69922 · /tle

For live sub-satellite position, see the globe view (requires WebGL).

§ Visibility from observer

Set your observer location to see the next 7 days of passes ≥ 10°. The values pass through the URL so the page stays shareable.

No JS? Fill the form by hand. The geolocation button needs JavaScript.